Time,TemperatureF,DewpointF,PressureIn,WindDirection,WindDirectionDegrees,WindSpeedMPH,WindSpeedGustMPH,Humidity,HourlyPrecipIn,Conditions,Clouds,dailyrainin,SolarRadiationWatts/m^2,SoftwareType,DateUTC
2013-10-15 00:03:00,56.1,33.3,30.01,ESE,114,0.0,1.0,42,0.00,,,0.00,0.0,meteohub,2013-10-15 07:03:00,
2013-10-15 00:08:00,55.8,33.1,30.01,ESE,114,0.0,1.0,42,0.00,,,0.00,0.0,meteohub,2013-10-15 07:08:00,
2013-10-15 00:13:00,55.6,33.4,30.01,ESE,114,0.0,1.0,43,0.00,,,0.00,0.0,meteohub,2013-10-15 07:13:00,
2013-10-15 00:18:00,55.2,33.1,30.01,ESE,114,0.0,1.0,43,0.00,,,0.00,0.0,meteohub,2013-10-15 07:18:00,
2013-10-15 00:23:00,55.0,32.9,30.01,ESE,114,0.0,1.0,43,0.00,,,0.00,0.0,meteohub,2013-10-15 07:23:00,
2013-10-15 00:28:00,55.0,33.4,30.01,ESE,114,0.0,3.0,44,0.00,,,0.00,0.0,meteohub,2013-10-15 07:28:00,
2013-10-15 00:33:00,54.9,33.4,30.01,ESE,114,0.0,3.0,44,0.00,,,0.00,0.0,meteohub,2013-10-15 07:33:00,
2013-10-15 00:38:00,54.5,33.1,30.01,ESE,114,0.0,3.0,44,0.00,,,0.00,0.0,meteohub,2013-10-15 07:38:00,
2013-10-15 00:43:00,54.1,33.3,30.01,ESE,114,0.0,2.0,45,0.00,,,0.00,0.0,meteohub,2013-10-15 07:43:00,
2013-10-15 00:48:00,54.0,33.1,30.01,ESE,114,0.0,1.0,45,0.00,,,0.00,0.0,meteohub,2013-10-15 07:48:00,
2013-10-15 00:53:00,54.0,33.6,30.01,ESE,114,0.0,0.0,46,0.00,,,0.00,0.0,meteohub,2013-10-15 07:53:00,
2013-10-15 00:58:00,53.8,33.4,30.01,ESE,114,1.0,0.0,46,0.00,,,0.00,0.0,meteohub,2013-10-15 07:58:00,
2013-10-15 01:03:00,53.8,34.0,30.01,ESE,114,0.0,1.0,47,0.00,,,0.00,0.0,meteohub,2013-10-15 08:03:00,
2013-10-15 01:08:00,53.8,34.0,30.01,ESE,114,0.0,1.0,47,0.00,,,0.00,0.0,meteohub,2013-10-15 08:08:00,
2013-10-15 01:13:00,53.6,33.8,30.01,ESE,114,1.0,1.0,47,0.00,,,0.00,0.0,meteohub,2013-10-15 08:13:00,
2013-10-15 01:18:00,53.4,33.6,30.01,ESE,114,1.0,2.0,47,0.00,,,0.00,0.0,meteohub,2013-10-15 08:18:00,
2013-10-15 01:23:00,53.2,33.4,30.01,ESE,114,0.0,2.0,47,0.00,,,0.00,0.0,meteohub,2013-10-15 08:23:00,
2013-10-15 01:28:00,53.1,33.8,30.01,ESE,114,0.0,2.0,48,0.00,,,0.00,0.0,meteohub,2013-10-15 08:28:00,
2013-10-15 01:33:00,52.7,33.6,30.01,ESE,114,0.0,2.0,48,0.00,,,0.00,0.0,meteohub,2013-10-15 08:33:00,
2013-10-15 01:38:00,52.5,33.4,30.01,ESE,114,0.0,0.0,48,0.00,,,0.00,0.0,meteohub,2013-10-15 08:38:00,
2013-10-15 01:43:00,52.5,33.4,30.00,ESE,114,0.0,0.0,48,0.00,,,0.00,0.0,meteohub,2013-10-15 08:43:00,
2013-10-15 01:48:00,52.3,33.3,30.00,ESE,114,0.0,0.0,48,0.00,,,0.00,0.0,meteohub,2013-10-15 08:48:00,
2013-10-15 01:50:00,52.3,33.3,30.00,ESE,114,0.0,0.0,48,0.00,,,0.00,0.0,meteohub,2013-10-15 08:50:00,
2013-10-15 01:55:00,52.2,33.6,30.00,ESE,114,0.0,1.0,49,0.00,,,0.00,0.0,meteohub,2013-10-15 08:55:00,
2013-10-15 02:00:00,52.2,34.2,30.00,ESE,114,0.0,1.0,50,0.00,,,0.00,0.0,meteohub,2013-10-15 09:00:00,
2013-10-15 02:05:00,52.2,34.2,30.00,ESE,114,0.0,1.0,50,0.00,,,0.00,0.0,meteohub,2013-10-15 09:05:00,
2013-10-15 02:10:00,52.2,34.2,30.00,ESE,114,0.0,1.0,50,0.00,,,0.00,0.0,meteohub,2013-10-15 09:10:00,
2013-10-15 02:15:00,52.2,34.2,30.00,ESE,114,0.0,1.0,50,0.00,,,0.00,0.0,meteohub,2013-10-15 09:15:00,
2013-10-15 02:20:00,52.3,34.2,30.00,ESE,114,0.0,1.0,50,0.00,,,0.00,0.0,meteohub,2013-10-15 09:20:00,
2013-10-15 02:25:00,52.2,34.2,29.99,ESE,114,0.0,1.0,50,0.00,,,0.00,0.0,meteohub,2013-10-15 09:25:00,
2013-10-15 02:30:00,52.2,34.2,29.99,ESE,114,0.0,1.0,50,0.00,,,0.00,0.0,meteohub,2013-10-15 09:30:00,
2013-10-15 02:35:00,52.0,34.3,29.99,ESE,114,0.0,1.0,51,0.00,,,0.00,0.0,meteohub,2013-10-15 09:35:00,
2013-10-15 02:40:00,52.0,34.3,29.99,ESE,114,0.0,0.0,51,0.00,,,0.00,0.0,meteohub,2013-10-15 09:40:00,
2013-10-15 02:46:00,51.8,34.2,29.99,ESE,114,0.0,0.0,51,0.00,,,0.00,0.0,meteohub,2013-10-15 09:46:00,
2013-10-15 02:51:00,52.0,34.3,29.99,ESE,114,1.0,1.0,51,0.00,,,0.00,0.0,meteohub,2013-10-15 09:51:00,
2013-10-15 02:56:00,52.0,34.3,29.99,ESE,114,0.0,1.0,51,0.00,,,0.00,0.0,meteohub,2013-10-15 09:56:00,
2013-10-15 03:01:00,52.2,34.5,29.99,ESE,114,0.0,1.0,51,0.00,,,0.00,0.0,meteohub,2013-10-15 10:01:00,
2013-10-15 03:06:00,52.3,34.7,29.99,ESE,114,0.0,1.0,51,0.00,,,0.00,0.0,meteohub,2013-10-15 10:06:00,
2013-10-15 03:11:00,52.5,34.9,29.99,ESE,114,0.0,1.0,51,0.00,,,0.00,0.0,meteohub,2013-10-15 10:11:00,
2013-10-15 03:16:00,52.5,34.9,29.99,ESE,114,0.0,1.0,51,0.00,,,0.00,0.0,meteohub,2013-10-15 10:16:00,
2013-10-15 03:21:00,52.7,35.1,29.98,ESE,114,1.0,1.0,51,0.00,,,0.00,0.0,meteohub,2013-10-15 10:21:00,
2013-10-15 03:26:00,52.7,34.5,29.98,ESE,114,0.0,1.0,50,0.00,,,0.00,0.0,meteohub,2013-10-15 10:26:00,
2013-10-15 03:31:00,52.5,34.9,29.98,ESE,114,1.0,1.0,51,0.00,,,0.00,0.0,meteohub,2013-10-15 10:31:00,
2013-10-15 03:36:00,52.5,34.9,29.98,ESE,114,0.0,1.0,51,0.00,,,0.00,0.0,meteohub,2013-10-15 10:36:00,
2013-10-15 03:41:00,52.3,34.7,29.98,ESE,114,0.0,1.0,51,0.00,,,0.00,0.0,meteohub,2013-10-15 10:41:00,
2013-10-15 03:46:00,52.3,34.7,29.98,ESE,114,0.0,2.0,51,0.00,,,0.00,0.0,meteohub,2013-10-15 10:46:00,
2013-10-15 03:51:00,52.2,34.5,29.98,ESE,114,0.0,2.0,51,0.00,,,0.00,0.0,meteohub,2013-10-15 10:51:00,
2013-10-15 03:56:00,52.2,34.5,29.98,ESE,114,0.0,2.0,51,0.00,,,0.00,0.0,meteohub,2013-10-15 10:56:00,
2013-10-15 04:01:00,52.2,34.5,29.98,ESE,114,0.0,1.0,51,0.00,,,0.00,0.0,meteohub,2013-10-15 11:01:00,
2013-10-15 04:06:00,52.0,34.9,29.98,ESE,114,0.0,1.0,52,0.00,,,0.00,0.0,meteohub,2013-10-15 11:06:00,
2013-10-15 04:11:00,51.6,34.5,29.98,ESE,114,0.0,1.0,52,0.00,,,0.00,0.0,meteohub,2013-10-15 11:11:00,
2013-10-15 04:16:00,51.4,34.9,29.98,ESE,114,0.0,1.0,53,0.00,,,0.00,0.0,meteohub,2013-10-15 11:16:00,
2013-10-15 04:21:00,51.3,34.7,29.98,ESE,114,0.0,1.0,53,0.00,,,0.00,0.0,meteohub,2013-10-15 11:21:00,
2013-10-15 04:26:00,51.1,35.1,29.98,ESE,114,0.0,0.0,54,0.00,,,0.00,0.0,meteohub,2013-10-15 11:26:00,
2013-10-15 04:31:00,50.7,34.7,29.98,ESE,114,0.0,0.0,54,0.00,,,0.00,0.0,meteohub,2013-10-15 11:31:00,
2013-10-15 04:36:00,50.5,34.5,29.98,ESE,114,0.0,1.0,54,0.00,,,0.00,0.0,meteohub,2013-10-15 11:36:00,
2013-10-15 04:41:00,50.4,34.9,29.98,ESE,114,0.0,1.0,55,0.00,,,0.00,0.0,meteohub,2013-10-15 11:41:00,
2013-10-15 04:46:00,50.4,34.9,29.98,ESE,114,0.0,1.0,55,0.00,,,0.00,0.0,meteohub,2013-10-15 11:46:00,
2013-10-15 04:51:00,50.2,34.7,29.98,ESE,114,0.0,1.0,55,0.00,,,0.00,0.0,meteohub,2013-10-15 11:51:00,
2013-10-15 04:56:00,50.2,34.7,29.98,ESE,114,1.0,1.0,55,0.00,,,0.00,0.0,meteohub,2013-10-15 11:56:00,
2013-10-15 05:01:00,50.0,34.5,29.98,ESE,114,0.0,1.0,55,0.00,,,0.00,0.0,meteohub,2013-10-15 12:01:00,
2013-10-15 05:07:00,49.8,34.7,29.98,ESE,114,0.0,1.0,56,0.00,,,0.00,0.0,meteohub,2013-10-15 12:07:00,
2013-10-15 05:11:00,49.8,34.7,29.99,ESE,114,0.0,1.0,56,0.00,,,0.00,0.0,meteohub,2013-10-15 12:11:00,
2013-10-15 05:17:00,49.6,34.5,29.99,ESE,114,0.0,3.0,56,0.00,,,0.00,0.0,meteohub,2013-10-15 12:17:00,
2013-10-15 05:22:00,49.6,34.5,29.98,ESE,114,0.0,3.0,56,0.00,,,0.00,0.0,meteohub,2013-10-15 12:22:00,
2013-10-15 05:27:00,49.6,34.5,29.99,ESE,114,0.0,3.0,56,0.00,,,0.00,0.0,meteohub,2013-10-15 12:27:00,
2013-10-15 05:32:00,49.5,34.3,29.98,ESE,114,0.0,2.0,56,0.00,,,0.00,0.0,meteohub,2013-10-15 12:32:00,
2013-10-15 05:37:00,49.5,34.9,29.99,ESE,114,0.0,2.0,57,0.00,,,0.00,0.0,meteohub,2013-10-15 12:37:00,
2013-10-15 05:42:00,49.3,34.7,29.99,ESE,114,0.0,2.0,57,0.00,,,0.00,0.0,meteohub,2013-10-15 12:42:00,
2013-10-15 05:47:00,48.9,34.9,29.99,ESE,114,1.0,1.0,58,0.00,,,0.00,0.0,meteohub,2013-10-15 12:47:00,
2013-10-15 05:52:00,48.9,34.9,29.99,ESE,114,0.0,1.0,58,0.00,,,0.00,0.0,meteohub,2013-10-15 12:52:00,
2013-10-15 05:57:00,48.7,34.7,29.99,ESE,114,0.0,1.0,58,0.00,,,0.00,0.0,meteohub,2013-10-15 12:57:00,
2013-10-15 06:02:00,48.6,34.9,29.99,ESE,114,0.0,1.0,59,0.00,,,0.00,0.0,meteohub,2013-10-15 13:02:00,
2013-10-15 06:07:00,48.6,34.9,29.99,ESE,114,0.0,2.0,59,0.00,,,0.00,0.0,meteohub,2013-10-15 13:07:00,
2013-10-15 06:12:00,48.6,34.9,29.99,ESE,114,1.0,2.0,59,0.00,,,0.00,0.0,meteohub,2013-10-15 13:12:00,
2013-10-15 06:17:00,48.6,34.9,29.99,ESE,114,0.0,2.0,59,0.00,,,0.00,0.0,meteohub,2013-10-15 13:17:00,
2013-10-15 06:22:00,48.6,34.9,29.99,ESE,114,0.0,1.0,59,0.00,,,0.00,0.0,meteohub,2013-10-15 13:22:00,
2013-10-15 06:27:00,48.6,34.9,29.99,ESE,114,1.0,1.0,59,0.00,,,0.00,5.0,meteohub,2013-10-15 13:27:00,
2013-10-15 06:32:00,48.7,35.1,29.99,ESE,114,0.0,1.0,59,0.00,,,0.00,11.0,meteohub,2013-10-15 13:32:00,
2013-10-15 06:37:00,48.7,35.1,29.99,ESE,114,0.0,1.0,59,0.00,,,0.00,12.0,meteohub,2013-10-15 13:37:00,
2013-10-15 06:42:00,48.7,35.1,29.99,ESE,114,0.0,1.0,59,0.00,,,0.00,16.0,meteohub,2013-10-15 13:42:00,
2013-10-15 06:47:00,48.9,35.2,29.99,ESE,114,0.0,1.0,59,0.00,,,0.00,18.0,meteohub,2013-10-15 13:47:00,
2013-10-15 06:52:00,48.9,35.2,29.99,ESE,114,0.0,1.0,59,0.00,,,0.00,21.0,meteohub,2013-10-15 13:52:00,
2013-10-15 06:57:00,49.5,35.8,29.99,ESE,114,0.0,1.0,59,0.00,,,0.00,35.0,meteohub,2013-10-15 13:57:00,
2013-10-15 07:02:00,49.8,36.1,29.99,ESE,114,0.0,1.0,59,0.00,,,0.00,47.0,meteohub,2013-10-15 14:02:00,
2013-10-15 07:07:00,50.4,36.5,30.00,ESE,114,0.0,1.0,59,0.00,,,0.00,67.0,meteohub,2013-10-15 14:07:00,
2013-10-15 07:12:00,51.3,37.0,30.00,ESE,114,0.0,1.0,58,0.00,,,0.00,86.0,meteohub,2013-10-15 14:12:00,
2013-10-15 07:17:00,52.5,37.2,30.00,ESE,114,1.0,1.0,56,0.00,,,0.00,102.0,meteohub,2013-10-15 14:17:00,
2013-10-15 07:22:00,53.8,37.6,30.00,ESE,114,0.0,1.0,54,0.00,,,0.00,121.0,meteohub,2013-10-15 14:22:00,
2013-10-15 07:26:00,55.2,37.4,30.00,ESE,114,0.0,1.0,51,0.00,,,0.00,144.0,meteohub,2013-10-15 14:26:00,
2013-10-15 07:32:00,56.7,36.1,30.00,ESE,114,0.0,1.0,46,0.00,,,0.00,165.0,meteohub,2013-10-15 14:32:00,
2013-10-15 07:37:00,58.5,37.2,30.00,ESE,114,0.0,1.0,45,0.00,,,0.00,186.0,meteohub,2013-10-15 14:37:00,
2013-10-15 07:42:00,59.7,36.5,30.01,ESE,114,0.0,1.0,42,0.00,,,0.00,207.0,meteohub,2013-10-15 14:42:00,
2013-10-15 07:47:00,61.3,36.1,30.01,ESE,114,0.0,1.0,39,0.00,,,0.00,225.0,meteohub,2013-10-15 14:47:00,
2013-10-15 07:52:00,62.2,35.6,30.01,ESE,114,1.0,2.0,37,0.00,,,0.00,239.0,meteohub,2013-10-15 14:52:00,
2013-10-15 07:57:00,62.8,36.1,30.01,ESE,114,0.0,2.0,37,0.00,,,0.00,257.0,meteohub,2013-10-15 14:57:00,
2013-10-15 08:02:00,64.0,36.5,30.01,ESE,114,0.0,2.0,36,0.00,,,0.00,274.0,meteohub,2013-10-15 15:02:00,
2013-10-15 08:07:00,65.5,36.3,30.01,ESE,114,0.0,1.0,34,0.00,,,0.00,292.0,meteohub,2013-10-15 15:07:00,
2013-10-15 08:12:00,65.8,36.0,30.01,ESE,114,0.0,1.0,33,0.00,,,0.00,309.0,meteohub,2013-10-15 15:12:00,
2013-10-15 08:17:00,66.0,36.9,30.01,ESE,114,1.0,2.0,34,0.00,,,0.00,327.0,meteohub,2013-10-15 15:17:00,
2013-10-15 08:22:00,66.0,36.1,30.01,ESE,114,0.0,2.0,33,0.00,,,0.00,341.0,meteohub,2013-10-15 15:22:00,
2013-10-15 08:27:00,66.7,36.0,30.01,ESE,114,1.0,2.0,32,0.00,,,0.00,357.0,meteohub,2013-10-15 15:27:00,
2013-10-15 08:32:00,67.8,36.9,30.01,ESE,114,1.0,2.0,32,0.00,,,0.00,367.0,meteohub,2013-10-15 15:32:00,
2013-10-15 08:37:00,68.7,36.9,30.01,ESE,114,1.0,2.0,31,0.00,,,0.00,392.0,meteohub,2013-10-15 15:37:00,
2013-10-15 08:42:00,68.7,36.9,30.01,ESE,114,2.0,2.0,31,0.00,,,0.00,406.0,meteohub,2013-10-15 15:42:00,
2013-10-15 08:47:00,68.4,36.5,30.01,ESE,114,2.0,3.0,31,0.00,,,0.00,422.0,meteohub,2013-10-15 15:47:00,
2013-10-15 08:52:00,68.2,35.6,30.01,SSE,162,2.0,3.0,30,0.00,,,0.00,439.0,meteohub,2013-10-15 15:52:00,
2013-10-15 08:57:00,68.2,35.6,30.01,SW,229,2.0,3.0,30,0.00,,,0.00,454.0,meteohub,2013-10-15 15:57:00,
2013-10-15 09:02:00,68.4,35.8,30.01,SW,236,2.0,4.0,30,0.00,,,0.00,469.0,meteohub,2013-10-15 16:02:00,
2013-10-15 09:07:00,68.5,36.7,30.01,West,261,1.0,4.0,31,0.00,,,0.00,483.0,meteohub,2013-10-15 16:07:00,
2013-10-15 09:12:00,68.7,36.9,30.01,West,267,3.0,4.0,31,0.00,,,0.00,496.0,meteohub,2013-10-15 16:12:00,
2013-10-15 09:17:00,68.9,37.0,30.01,West,265,3.0,4.0,31,0.00,,,0.00,513.0,meteohub,2013-10-15 16:17:00,
2013-10-15 09:22:00,69.1,36.3,30.01,West,265,2.0,4.0,30,0.00,,,0.00,526.0,meteohub,2013-10-15 16:22:00,
2013-10-15 09:27:00,69.1,37.2,30.01,West,260,2.0,4.0,31,0.00,,,0.00,541.0,meteohub,2013-10-15 16:27:00,
2013-10-15 09:32:00,69.4,36.7,30.01,WSW,257,2.0,5.0,30,0.00,,,0.00,554.0,meteohub,2013-10-15 16:32:00,
2013-10-15 09:37:00,69.8,36.1,30.00,West,264,2.0,5.0,29,0.00,,,0.00,566.0,meteohub,2013-10-15 16:37:00,
2013-10-15 09:42:00,70.2,35.6,30.00,West,259,2.0,5.0,28,0.00,,,0.00,582.0,meteohub,2013-10-15 16:42:00,
2013-10-15 09:47:00,70.3,34.7,30.00,WSW,257,3.0,5.0,27,0.00,,,0.00,594.0,meteohub,2013-10-15 16:47:00,
2013-10-15 09:52:00,70.9,36.1,30.00,West,263,2.0,5.0,28,0.00,,,0.00,606.0,meteohub,2013-10-15 16:52:00,
2013-10-15 09:57:00,71.2,35.6,30.00,WSW,257,4.0,4.0,27,0.00,,,0.00,619.0,meteohub,2013-10-15 16:57:00,
2013-10-15 10:02:00,71.4,35.8,30.00,West,263,4.0,5.0,27,0.00,,,0.00,631.0,meteohub,2013-10-15 17:02:00,
2013-10-15 10:07:00,72.0,36.1,30.00,West,259,3.0,5.0,27,0.00,,,0.00,640.0,meteohub,2013-10-15 17:07:00,
2013-10-15 10:12:00,72.3,36.5,29.99,WSW,253,2.0,6.0,27,0.00,,,0.00,650.0,meteohub,2013-10-15 17:12:00,
2013-10-15 10:17:00,73.0,36.1,29.99,WSW,250,2.0,6.0,26,0.00,,,0.00,657.0,meteohub,2013-10-15 17:17:00,
2013-10-15 10:22:00,73.4,35.4,29.99,WSW,250,1.0,5.0,25,0.00,,,0.00,670.0,meteohub,2013-10-15 17:22:00,
2013-10-15 10:27:00,74.1,36.0,29.99,WSW,252,2.0,5.0,25,0.00,,,0.00,682.0,meteohub,2013-10-15 17:27:00,
2013-10-15 10:32:00,74.5,35.2,29.99,West,265,1.0,5.0,24,0.00,,,0.00,693.0,meteohub,2013-10-15 17:32:00,
2013-10-15 10:37:00,74.8,36.7,29.99,West,259,0.0,5.0,25,0.00,,,0.00,701.0,meteohub,2013-10-15 17:37:00,
2013-10-15 10:42:00,75.0,36.9,29.99,SSW,208,2.0,5.0,25,0.00,,,0.00,708.0,meteohub,2013-10-15 17:42:00,
2013-10-15 10:47:00,75.7,36.3,29.99,WSW,240,2.0,5.0,24,0.00,,,0.00,721.0,meteohub,2013-10-15 17:47:00,
2013-10-15 10:52:00,76.5,36.0,29.99,WSW,257,3.0,5.0,23,0.00,,,0.00,728.0,meteohub,2013-10-15 17:52:00,
2013-10-15 10:57:00,76.5,36.0,29.99,West,266,1.0,6.0,23,0.00,,,0.00,733.0,meteohub,2013-10-15 17:57:00,
2013-10-15 11:02:00,76.6,37.2,29.98,SW,218,6.0,6.0,24,0.00,,,0.00,742.0,meteohub,2013-10-15 18:02:00,
2013-10-15 11:07:00,76.6,37.2,29.98,SW,220,2.0,6.0,24,0.00,,,0.00,747.0,meteohub,2013-10-15 18:07:00,
2013-10-15 11:12:00,76.8,37.2,29.98,NW,304,2.0,6.0,24,0.00,,,0.00,752.0,meteohub,2013-10-15 18:12:00,
2013-10-15 11:17:00,77.5,39.0,29.98,WSW,246,1.0,6.0,25,0.00,,,0.00,758.0,meteohub,2013-10-15 18:17:00,
2013-10-15 11:22:00,78.1,40.5,29.97,SSW,196,1.0,8.0,26,0.00,,,0.00,761.0,meteohub,2013-10-15 18:22:00,
2013-10-15 11:27:00,78.3,38.5,29.97,NW,323,2.0,8.0,24,0.00,,,0.00,765.0,meteohub,2013-10-15 18:27:00,
2013-10-15 11:32:00,78.3,42.4,29.97,SSW,198,3.0,9.0,28,0.00,,,0.00,772.0,meteohub,2013-10-15 18:32:00,
2013-10-15 11:37:00,78.4,42.6,29.97,WSW,241,3.0,9.0,28,0.00,,,0.00,777.0,meteohub,2013-10-15 18:37:00,
2013-10-15 11:42:00,78.4,45.3,29.97,NW,311,4.0,9.0,31,0.00,,,0.00,779.0,meteohub,2013-10-15 18:42:00,
2013-10-15 11:47:00,78.3,45.1,29.96,WNW,284,3.0,7.0,31,0.00,,,0.00,782.0,meteohub,2013-10-15 18:47:00,
2013-10-15 11:52:00,78.4,45.3,29.97,South,174,2.0,9.0,31,0.00,,,0.00,786.0,meteohub,2013-10-15 18:52:00,
2013-10-15 11:57:00,78.3,43.3,29.96,SW,222,1.0,10.0,29,0.00,,,0.00,788.0,meteohub,2013-10-15 18:57:00,
2013-10-15 12:02:00,79.2,43.2,29.96,SSW,207,4.0,10.0,28,0.00,,,0.00,788.0,meteohub,2013-10-15 19:02:00,
2013-10-15 12:07:00,79.3,41.5,29.96,WNW,302,2.0,10.0,26,0.00,,,0.00,791.0,meteohub,2013-10-15 19:07:00,
2013-10-15 12:12:00,79.5,39.6,29.96,West,267,6.0,10.0,24,0.00,,,0.00,789.0,meteohub,2013-10-15 19:12:00,
2013-10-15 12:17:00,79.3,40.5,29.95,WNW,302,3.0,11.0,25,0.00,,,0.00,789.0,meteohub,2013-10-15 19:17:00,
2013-10-15 12:22:00,79.3,41.5,29.95,WSW,257,5.0,11.0,26,0.00,,,0.00,802.0,meteohub,2013-10-15 19:22:00,
2013-10-15 12:27:00,79.3,38.3,29.95,West,278,5.0,11.0,23,0.00,,,0.00,798.0,meteohub,2013-10-15 19:27:00,
2013-10-15 12:32:00,79.9,38.8,29.95,West,270,4.0,11.0,23,0.00,,,0.00,789.0,meteohub,2013-10-15 19:32:00,
2013-10-15 12:37:00,79.9,36.5,29.95,West,261,4.0,12.0,21,0.00,,,0.00,791.0,meteohub,2013-10-15 19:37:00,
2013-10-15 12:42:00,80.2,36.7,29.94,WSW,253,4.0,12.0,21,0.00,,,0.00,788.0,meteohub,2013-10-15 19:42:00,
2013-10-15 12:47:00,80.2,35.6,29.94,West,269,3.0,11.0,20,0.00,,,0.00,782.0,meteohub,2013-10-15 19:47:00,
2013-10-15 12:52:00,80.2,36.7,29.94,West,265,10.0,10.0,21,0.00,,,0.00,779.0,meteohub,2013-10-15 19:52:00,
2013-10-15 12:57:00,80.2,36.7,29.93,West,281,5.0,11.0,21,0.00,,,0.00,770.0,meteohub,2013-10-15 19:57:00,
2013-10-15 13:02:00,80.6,34.5,29.93,SW,225,5.0,14.0,19,0.00,,,0.00,772.0,meteohub,2013-10-15 20:02:00,
2013-10-15 13:07:00,81.1,35.1,29.93,NE,51,2.0,14.0,19,0.00,,,0.00,766.0,meteohub,2013-10-15 20:07:00,
2013-10-15 13:12:00,81.1,35.1,29.93,WNW,290,3.0,11.0,19,0.00,,,0.00,759.0,meteohub,2013-10-15 20:12:00,
2013-10-15 13:17:00,81.1,36.3,29.93,West,272,8.0,9.0,20,0.00,,,0.00,758.0,meteohub,2013-10-15 20:17:00,
2013-10-15 13:22:00,81.1,35.1,29.92,West,259,5.0,9.0,19,0.00,,,0.00,749.0,meteohub,2013-10-15 20:22:00,
2013-10-15 13:27:00,81.1,36.3,29.92,SW,236,1.0,9.0,20,0.00,,,0.00,740.0,meteohub,2013-10-15 20:27:00,
2013-10-15 13:32:00,81.1,36.3,29.92,WSW,242,2.0,9.0,20,0.00,,,0.00,742.0,meteohub,2013-10-15 20:32:00,
2013-10-15 13:37:00,81.1,36.3,29.92,WSW,244,4.0,8.0,20,0.00,,,0.00,729.0,meteohub,2013-10-15 20:37:00,
2013-10-15 13:42:00,81.9,35.6,29.92,NW,313,9.0,9.0,19,0.00,,,0.00,724.0,meteohub,2013-10-15 20:42:00,
2013-10-15 13:47:00,81.9,35.6,29.92,NW,321,6.0,10.0,19,0.00,,,0.00,708.0,meteohub,2013-10-15 20:47:00,
2013-10-15 13:52:00,81.5,36.5,29.92,WSW,254,3.0,10.0,20,0.00,,,0.00,698.0,meteohub,2013-10-15 20:52:00,
2013-10-15 13:57:00,81.1,36.3,29.91,NW,313,13.0,13.0,20,0.00,,,0.00,698.0,meteohub,2013-10-15 20:57:00,
2013-10-15 14:02:00,81.7,35.4,29.91,SSW,198,4.0,14.0,19,0.00,,,0.00,686.0,meteohub,2013-10-15 21:02:00,
2013-10-15 14:07:00,81.7,35.4,29.91,West,261,3.0,14.0,19,0.00,,,0.00,677.0,meteohub,2013-10-15 21:07:00,
2013-10-15 14:12:00,81.9,35.6,29.91,SW,221,1.0,14.0,19,0.00,,,0.00,666.0,meteohub,2013-10-15 21:12:00,
2013-10-15 14:17:00,81.9,34.2,29.91,WNW,294,3.0,9.0,18,0.00,,,0.00,661.0,meteohub,2013-10-15 21:17:00,
2013-10-15 14:22:00,81.7,34.0,29.91,West,273,3.0,10.0,18,0.00,,,0.00,645.0,meteohub,2013-10-15 21:22:00,
2013-10-15 14:27:00,81.3,33.8,29.91,SW,231,7.0,10.0,18,0.00,,,0.00,629.0,meteohub,2013-10-15 21:27:00,
2013-10-15 14:32:00,81.3,33.8,29.91,WSW,256,4.0,10.0,18,0.00,,,0.00,624.0,meteohub,2013-10-15 21:32:00,
2013-10-15 14:37:00,82.0,34.3,29.91,SW,235,9.0,10.0,18,0.00,,,0.00,608.0,meteohub,2013-10-15 21:37:00,
2013-10-15 14:42:00,82.0,34.3,29.91,West,269,8.0,11.0,18,0.00,,,0.00,601.0,meteohub,2013-10-15 21:42:00,
2013-10-15 14:47:00,81.9,32.7,29.91,NW,313,4.0,11.0,17,0.00,,,0.00,585.0,meteohub,2013-10-15 21:47:00,
2013-10-15 14:52:00,81.7,32.5,29.91,WNW,292,5.0,11.0,17,0.00,,,0.00,573.0,meteohub,2013-10-15 21:52:00,
2013-10-15 14:57:00,81.1,32.2,29.90,West,271,6.0,11.0,17,0.00,,,0.00,559.0,meteohub,2013-10-15 21:57:00,
2013-10-15 15:02:00,81.1,32.2,29.90,WSW,254,5.0,12.0,17,0.00,,,0.00,547.0,meteohub,2013-10-15 22:02:00,
2013-10-15 15:07:00,81.1,32.2,29.91,WNW,295,5.0,12.0,17,0.00,,,0.00,531.0,meteohub,2013-10-15 22:07:00,
2013-10-15 15:12:00,81.0,32.0,29.90,WNW,283,2.0,11.0,17,0.00,,,0.00,519.0,meteohub,2013-10-15 22:12:00,
2013-10-15 15:17:00,81.1,32.2,29.90,WNW,294,4.0,10.0,17,0.00,,,0.00,515.0,meteohub,2013-10-15 22:17:00,
2013-10-15 15:22:00,80.8,30.4,29.90,WSW,240,5.0,10.0,16,0.00,,,0.00,494.0,meteohub,2013-10-15 22:22:00,
2013-10-15 15:27:00,80.8,30.4,29.90,WSW,238,3.0,10.0,16,0.00,,,0.00,485.0,meteohub,2013-10-15 22:27:00,
2013-10-15 15:32:00,81.3,30.9,29.90,SW,223,7.0,10.0,16,0.00,,,0.00,459.0,meteohub,2013-10-15 22:32:00,
2013-10-15 15:37:00,81.5,30.9,29.90,West,259,4.0,11.0,16,0.00,,,0.00,441.0,meteohub,2013-10-15 22:37:00,
2013-10-15 15:42:00,81.3,30.9,29.90,SW,223,7.0,11.0,16,0.00,,,0.00,425.0,meteohub,2013-10-15 22:42:00,
2013-10-15 15:47:00,81.1,29.1,29.90,WSW,253,6.0,11.0,15,0.00,,,0.00,417.0,meteohub,2013-10-15 22:47:00,
2013-10-15 15:52:00,81.0,28.9,29.90,West,267,6.0,13.0,15,0.00,,,0.00,394.0,meteohub,2013-10-15 22:52:00,
2013-10-15 15:57:00,80.8,28.8,29.90,West,281,8.0,13.0,15,0.00,,,0.00,378.0,meteohub,2013-10-15 22:57:00,
2013-10-15 16:02:00,80.8,30.4,29.90,West,264,3.0,12.0,16,0.00,,,0.00,362.0,meteohub,2013-10-15 23:02:00,
2013-10-15 16:07:00,80.8,28.8,29.90,WNW,298,10.0,10.0,15,0.00,,,0.00,343.0,meteohub,2013-10-15 23:07:00,
2013-10-15 16:12:00,80.2,28.4,29.90,West,263,6.0,13.0,15,0.00,,,0.00,325.0,meteohub,2013-10-15 23:12:00,
2013-10-15 16:17:00,80.2,28.4,29.90,West,278,3.0,13.0,15,0.00,,,0.00,308.0,meteohub,2013-10-15 23:17:00,
2013-10-15 16:22:00,80.1,29.8,29.90,SW,234,4.0,13.0,16,0.00,,,0.00,294.0,meteohub,2013-10-15 23:22:00,
2013-10-15 16:27:00,79.5,29.5,29.90,NNW,335,5.0,12.0,16,0.00,,,0.00,272.0,meteohub,2013-10-15 23:27:00,
2013-10-15 16:32:00,79.5,29.5,29.90,West,267,3.0,12.0,16,0.00,,,0.00,248.0,meteohub,2013-10-15 23:32:00,
2013-10-15 16:37:00,79.5,29.5,29.90,WSW,256,4.0,10.0,16,0.00,,,0.00,225.0,meteohub,2013-10-15 23:37:00,
2013-10-15 16:42:00,79.5,27.9,29.90,West,277,2.0,9.0,15,0.00,,,0.00,202.0,meteohub,2013-10-15 23:42:00,
2013-10-15 16:47:00,79.3,27.7,29.90,West,275,5.0,9.0,15,0.00,,,0.00,179.0,meteohub,2013-10-15 23:47:00,
2013-10-15 16:52:00,79.3,27.7,29.90,West,279,3.0,8.0,15,0.00,,,0.00,160.0,meteohub,2013-10-15 23:52:00,
2013-10-15 16:57:00,79.2,29.1,29.90,West,263,3.0,8.0,16,0.00,,,0.00,139.0,meteohub,2013-10-15 23:57:00,
2013-10-15 17:02:00,78.6,27.1,29.90,West,265,6.0,9.0,15,0.00,,,0.00,118.0,meteohub,2013-10-16 00:02:00,
2013-10-15 17:07:00,78.4,27.0,29.90,NW,323,5.0,10.0,15,0.00,,,0.00,97.0,meteohub,2013-10-16 00:07:00,
2013-10-15 17:12:00,78.3,28.4,29.91,West,281,2.0,10.0,16,0.00,,,0.00,77.0,meteohub,2013-10-16 00:12:00,
2013-10-15 17:17:00,77.9,28.0,29.91,WSW,252,2.0,9.0,16,0.00,,,0.00,62.0,meteohub,2013-10-16 00:17:00,
2013-10-15 17:22:00,77.5,27.9,29.91,West,263,3.0,9.0,16,0.00,,,0.00,42.0,meteohub,2013-10-16 00:22:00,
2013-10-15 17:27:00,77.0,27.3,29.91,WSW,253,5.0,7.0,16,0.00,,,0.00,30.0,meteohub,2013-10-16 00:27:00,
2013-10-15 17:32:00,76.6,27.1,29.91,WSW,252,4.0,8.0,16,0.00,,,0.00,21.0,meteohub,2013-10-16 00:32:00,
2013-10-15 17:37:00,76.5,27.0,29.91,SW,217,5.0,10.0,16,0.00,,,0.00,14.0,meteohub,2013-10-16 00:37:00,
2013-10-15 17:42:00,75.9,26.4,29.91,West,275,1.0,10.0,16,0.00,,,0.00,11.0,meteohub,2013-10-16 00:42:00,
2013-10-15 17:47:00,75.7,27.9,29.91,West,267,3.0,10.0,17,0.00,,,0.00,7.0,meteohub,2013-10-16 00:47:00,
2013-10-15 17:52:00,75.2,27.3,29.91,SW,232,1.0,10.0,17,0.00,,,0.00,5.0,meteohub,2013-10-16 00:52:00,
2013-10-15 17:57:00,74.8,27.1,29.91,West,268,1.0,7.0,17,0.00,,,0.00,0.0,meteohub,2013-10-16 00:57:00,
2013-10-15 18:02:00,74.7,28.4,29.91,WNW,290,2.0,7.0,18,0.00,,,0.00,0.0,meteohub,2013-10-16 01:02:00,
2013-10-15 18:07:00,74.1,27.9,29.91,West,262,2.0,8.0,18,0.00,,,0.00,0.0,meteohub,2013-10-16 01:07:00,
2013-10-15 18:12:00,73.8,27.7,29.91,West,266,3.0,8.0,18,0.00,,,0.00,0.0,meteohub,2013-10-16 01:12:00,
2013-10-15 18:17:00,73.4,27.3,29.92,West,264,2.0,5.0,18,0.00,,,0.00,0.0,meteohub,2013-10-16 01:17:00,
2013-10-15 18:22:00,73.0,28.4,29.92,West,269,0.0,5.0,19,0.00,,,0.00,0.0,meteohub,2013-10-16 01:22:00,
2013-10-15 18:27:00,72.7,28.0,29.92,West,269,0.0,5.0,19,0.00,,,0.00,0.0,meteohub,2013-10-16 01:27:00,
2013-10-15 18:32:00,72.3,27.7,29.92,West,272,3.0,3.0,19,0.00,,,0.00,0.0,meteohub,2013-10-16 01:32:00,
2013-10-15 18:37:00,72.0,28.8,29.92,West,263,0.0,4.0,20,0.00,,,0.00,0.0,meteohub,2013-10-16 01:37:00,
2013-10-15 18:42:00,71.8,28.6,29.93,West,263,0.0,4.0,20,0.00,,,0.00,0.0,meteohub,2013-10-16 01:42:00,
2013-10-15 18:47:00,71.2,28.0,29.93,West,260,2.0,4.0,20,0.00,,,0.00,0.0,meteohub,2013-10-16 01:47:00,
2013-10-15 18:52:00,71.1,28.0,29.93,West,260,1.0,3.0,20,0.00,,,0.00,0.0,meteohub,2013-10-16 01:52:00,
2013-10-15 18:57:00,70.9,27.9,29.93,West,261,1.0,3.0,20,0.00,,,0.00,0.0,meteohub,2013-10-16 01:57:00,
2013-10-15 19:02:00,70.5,27.5,29.93,SW,232,1.0,3.0,20,0.00,,,0.00,0.0,meteohub,2013-10-16 02:02:00,
2013-10-15 19:07:00,70.3,28.6,29.94,SW,232,0.0,4.0,21,0.00,,,0.00,0.0,meteohub,2013-10-16 02:07:00,
2013-10-15 19:12:00,70.0,28.2,29.94,SW,232,0.0,4.0,21,0.00,,,0.00,0.0,meteohub,2013-10-16 02:12:00,
2013-10-15 19:17:00,69.4,27.9,29.94,SW,232,0.0,2.0,21,0.00,,,0.00,0.0,meteohub,2013-10-16 02:17:00,
2013-10-15 19:22:00,68.7,28.4,29.94,SW,232,0.0,1.0,22,0.00,,,0.00,0.0,meteohub,2013-10-16 02:22:00,
2013-10-15 19:27:00,67.8,27.5,29.94,SW,232,0.0,0.0,22,0.00,,,0.00,0.0,meteohub,2013-10-16 02:27:00,
2013-10-15 19:32:00,66.9,27.9,29.94,SW,232,1.0,2.0,23,0.00,,,0.00,0.0,meteohub,2013-10-16 02:32:00,
2013-10-15 19:37:00,66.0,27.1,29.95,SW,232,0.0,2.0,23,0.00,,,0.00,0.0,meteohub,2013-10-16 02:37:00,
2013-10-15 19:42:00,65.5,27.7,29.95,SW,232,1.0,2.0,24,0.00,,,0.00,0.0,meteohub,2013-10-16 02:42:00,
2013-10-15 19:47:00,64.8,28.0,29.95,SW,232,0.0,2.0,25,0.00,,,0.00,0.0,meteohub,2013-10-16 02:47:00,
2013-10-15 19:52:00,64.2,27.7,29.95,SW,232,1.0,2.0,25,0.00,,,0.00,0.0,meteohub,2013-10-16 02:52:00,
2013-10-15 19:57:00,63.7,28.2,29.95,SW,232,0.0,2.0,26,0.00,,,0.00,0.0,meteohub,2013-10-16 02:57:00,
2013-10-15 20:02:00,63.1,28.6,29.96,SW,232,1.0,2.0,27,0.00,,,0.00,0.0,meteohub,2013-10-16 03:02:00,
2013-10-15 20:07:00,62.8,28.2,29.96,SW,232,1.0,2.0,27,0.00,,,0.00,0.0,meteohub,2013-10-16 03:07:00,
2013-10-15 20:12:00,62.4,28.0,29.96,SW,235,3.0,3.0,27,0.00,,,0.00,0.0,meteohub,2013-10-16 03:12:00,
2013-10-15 20:17:00,62.2,28.8,29.96,SW,234,0.0,3.0,28,0.00,,,0.00,0.0,meteohub,2013-10-16 03:17:00,
2013-10-15 20:22:00,62.1,28.6,29.96,SW,234,0.0,3.0,28,0.00,,,0.00,0.0,meteohub,2013-10-16 03:22:00,
2013-10-15 20:27:00,61.9,28.4,29.97,SW,234,1.0,3.0,28,0.00,,,0.00,0.0,meteohub,2013-10-16 03:27:00,
2013-10-15 20:32:00,61.3,28.8,29.97,SW,234,0.0,3.0,29,0.00,,,0.00,0.0,meteohub,2013-10-16 03:32:00,
2013-10-15 20:37:00,61.2,28.6,29.97,SW,234,0.0,3.0,29,0.00,,,0.00,0.0,meteohub,2013-10-16 03:37:00,
2013-10-15 20:42:00,61.0,28.6,29.97,SW,234,0.0,2.0,29,0.00,,,0.00,0.0,meteohub,2013-10-16 03:42:00,
2013-10-15 20:47:00,60.8,28.4,29.97,SW,234,0.0,2.0,29,0.00,,,0.00,0.0,meteohub,2013-10-16 03:47:00,
2013-10-15 20:52:00,60.6,28.2,29.98,SW,234,0.0,1.0,29,0.00,,,0.00,0.0,meteohub,2013-10-16 03:52:00,
2013-10-15 20:57:00,60.3,27.9,29.98,SW,234,1.0,1.0,29,0.00,,,0.00,0.0,meteohub,2013-10-16 03:57:00,
2013-10-15 21:01:00,60.1,28.6,29.98,SW,234,1.0,1.0,30,0.00,,,0.00,0.0,meteohub,2013-10-16 04:01:00,
2013-10-15 21:02:00,59.9,28.4,29.98,SW,234,1.0,1.0,30,0.00,,,0.00,0.0,meteohub,2013-10-16 04:02:00,
2013-10-15 21:07:00,59.7,28.2,29.98,SW,234,1.0,2.0,30,0.00,,,0.00,0.0,meteohub,2013-10-16 04:07:00,
2013-10-15 21:12:00,59.5,28.0,29.98,SW,234,0.0,2.0,30,0.00,,,0.00,0.0,meteohub,2013-10-16 04:12:00,
2013-10-15 21:17:00,59.4,27.9,29.98,SW,234,2.0,2.0,30,0.00,,,0.00,0.0,meteohub,2013-10-16 04:17:00,
2013-10-15 21:22:00,59.2,28.6,29.99,SW,234,0.0,2.0,31,0.00,,,0.00,0.0,meteohub,2013-10-16 04:22:00,
2013-10-15 21:27:00,59.0,28.4,29.99,SW,234,1.0,2.0,31,0.00,,,0.00,0.0,meteohub,2013-10-16 04:27:00,
2013-10-15 21:32:00,58.8,28.2,29.99,SW,234,0.0,2.0,31,0.00,,,0.00,0.0,meteohub,2013-10-16 04:32:00,
2013-10-15 21:37:00,58.5,27.9,29.99,SW,234,1.0,2.0,31,0.00,,,0.00,0.0,meteohub,2013-10-16 04:37:00,
2013-10-15 21:42:00,58.3,28.6,29.99,SW,234,1.0,1.0,32,0.00,,,0.00,0.0,meteohub,2013-10-16 04:42:00,
2013-10-15 21:47:00,58.3,28.6,29.99,SW,234,0.0,2.0,32,0.00,,,0.00,0.0,meteohub,2013-10-16 04:47:00,
2013-10-15 21:52:00,58.1,28.4,30.00,SW,234,1.0,2.0,32,0.00,,,0.00,0.0,meteohub,2013-10-16 04:52:00,
2013-10-15 21:57:00,57.9,28.2,30.00,SW,234,1.0,2.0,32,0.00,,,0.00,0.0,meteohub,2013-10-16 04:57:00,
2013-10-15 22:02:00,57.9,28.2,30.00,SW,234,0.0,2.0,32,0.00,,,0.00,0.0,meteohub,2013-10-16 05:02:00,
2013-10-15 22:07:00,57.7,28.0,30.00,SW,234,2.0,2.0,32,0.00,,,0.00,0.0,meteohub,2013-10-16 05:07:00,
2013-10-15 22:12:00,57.7,28.0,30.00,SW,234,0.0,3.0,32,0.00,,,0.00,0.0,meteohub,2013-10-16 05:12:00,
2013-10-15 22:17:00,57.9,28.2,30.00,SW,234,2.0,3.0,32,0.00,,,0.00,0.0,meteohub,2013-10-16 05:17:00,
2013-10-15 22:22:00,58.3,28.6,30.01,SW,234,0.0,3.0,32,0.00,,,0.00,0.0,meteohub,2013-10-16 05:22:00,
2013-10-15 22:27:00,58.5,27.9,30.01,SW,234,1.0,3.0,31,0.00,,,0.00,0.0,meteohub,2013-10-16 05:27:00,
2013-10-15 22:32:00,58.5,28.8,30.01,SW,234,0.0,3.0,32,0.00,,,0.00,0.0,meteohub,2013-10-16 05:32:00,
2013-10-15 22:37:00,58.6,28.0,30.01,SW,234,0.0,2.0,31,0.00,,,0.00,0.0,meteohub,2013-10-16 05:37:00,
2013-10-15 22:42:00,58.6,28.0,30.01,SW,234,2.0,2.0,31,0.00,,,0.00,0.0,meteohub,2013-10-16 05:42:00,
2013-10-15 22:47:00,58.6,28.0,30.01,SW,234,0.0,2.0,31,0.00,,,0.00,0.0,meteohub,2013-10-16 05:47:00,
2013-10-15 22:52:00,58.6,28.0,30.01,SW,234,1.0,2.0,31,0.00,,,0.00,0.0,meteohub,2013-10-16 05:52:00,
2013-10-15 22:57:00,58.8,28.2,30.01,ENE,63,1.0,2.0,31,0.00,,,0.00,0.0,meteohub,2013-10-16 05:57:00,
2013-10-15 23:02:00,59.2,27.7,30.01,ENE,63,1.0,2.0,30,0.00,,,0.00,0.0,meteohub,2013-10-16 06:02:00,
2013-10-15 23:07:00,59.2,27.7,30.01,ENE,63,2.0,2.0,30,0.00,,,0.00,0.0,meteohub,2013-10-16 06:07:00,
2013-10-15 23:12:00,58.8,28.2,30.01,ENE,63,0.0,2.0,31,0.00,,,0.00,0.0,meteohub,2013-10-16 06:12:00,
2013-10-15 23:17:00,58.6,28.0,30.01,ENE,63,0.0,2.0,31,0.00,,,0.00,0.0,meteohub,2013-10-16 06:17:00,
2013-10-15 23:22:00,58.3,27.9,30.01,ENE,63,2.0,2.0,31,0.00,,,0.00,0.0,meteohub,2013-10-16 06:22:00,
2013-10-15 23:27:00,57.7,28.0,30.01,ENE,63,0.0,2.0,32,0.00,,,0.00,0.0,meteohub,2013-10-16 06:27:00,
2013-10-15 23:32:00,57.4,27.7,30.01,ENE,63,0.0,2.0,32,0.00,,,0.00,0.0,meteohub,2013-10-16 06:32:00,
2013-10-15 23:37:00,57.0,27.5,30.01,ENE,63,0.0,2.0,32,0.00,,,0.00,0.0,meteohub,2013-10-16 06:37:00,
2013-10-15 23:42:00,56.7,27.9,30.01,ENE,63,0.0,1.0,33,0.00,,,0.00,0.0,meteohub,2013-10-16 06:42:00,
2013-10-15 23:47:00,56.1,27.3,30.02,ENE,63,0.0,1.0,33,0.00,,,0.00,0.0,meteohub,2013-10-16 06:47:00,
2013-10-15 23:52:00,55.8,27.9,30.02,ENE,63,0.0,1.0,34,0.00,,,0.00,0.0,meteohub,2013-10-16 06:52:00,
2013-10-15 23:57:00,55.6,27.7,30.02,ENE,63,1.0,1.0,34,0.00,,,0.00,0.0,meteohub,2013-10-16 06:57:00,